GFSCGP_850_spd_132.txt.gz
Wind_Speed
2 4 5 5 5 4 4 4 6 4 6 7 4 3 7 19 10 18 24 27 31 32 29 29 25 24 24 23 23 22 20 18 16 17 19 18 17 13 11 9 9 8 7 6
6 2 5 3 4 2 3 6 3 2 3 3 4 3 4 15 9 9 27 27 35 32 28 32 30 27 26 25 25 24 23 19 17 17 18 16 14 12 12 11 10 8 6 6
5 2 7 3 3 5 3 5 4 4 3 2 4 2 5 6 8 11 24 34 36 38 33 36 34 31 28 27 27 26 27 23 19 18 19 15 14 13 13 12 11 9 7 6
2 2 3 3 3 5 4 5 9 10 2 1 5 4 4 9 10 9 15 26 31 37 37 37 35 33 30 28 27 25 27 27 22 19 18 17 17 17 14 11 9 8 10 8
6 3 4 3 7 8 4 9 8 3 4 2 3 3 5 9 9 12 15 24 33 37 40 41 38 33 30 29 29 25 24 28 25 21 20 18 20 17 14 14 10 9 9 10
7 3 4 5 1 6 12 8 7 5 3 2 1 7 4 6 16 20 13 24 33 35 39 42 40 35 31 30 29 27 27 27 25 24 20 19 18 17 15 17 14 10 10 11
6 2 1 8 8 7 6 6 3 3 2 0 4 3 9 9 7 22 20 30 32 37 38 40 40 38 35 32 30 29 30 28 26 27 25 21 20 17 15 17 13 11 12 9
2 4 7 6 7 8 6 6 5 6 5 3 2 5 5 4 7 26 29 32 32 34 39 43 43 40 36 33 30 29 32 29 27 25 24 23 22 22 19 17 16 14 13 12
2 4 4 5 4 10 5 4 4 6 3 3 1 5 6 7 13 13 25 31 37 34 40 44 45 42 39 35 31 27 28 29 28 24 22 23 22 22 22 19 19 19 17 15
3 2 3 5 4 1 7 5 1 2 4 2 3 3 5 10 13 8 16 28 38 43 41 43 46 44 40 36 32 27 24 24 25 25 25 23 21 22 21 20 17 17 17 16
2 2 6 2 4 2 1 1 2 3 3 5 3 5 4 4 10 9 14 25 31 35 44 43 46 45 42 37 35 29 26 23 22 24 24 24 22 22 21 22 19 18 19 17
1 4 2 4 3 4 1 1 4 4 3 2 3 4 7 7 2 2 3 13 26 35 41 43 41 45 45 40 37 32 29 25 21 18 22 25 23 22 24 22 20 18 19 19
2 1 3 6 6 3 5 3 1 2 3 5 4 4 4 7 7 7 3 6 16 25 35 39 38 43 45 41 36 35 31 26 24 21 18 22 24 23 22 20 17 17 17 19
3 2 5 5 5 2 1 4 2 2 3 3 3 2 2 5 5 9 5 2 11 23 30 35 38 41 43 42 38 36 33 30 27 25 21 19 22 23 22 19 18 17 16 18
4 1 2 5 4 1 1 1 4 2 1 4 2 3 3 3 4 6 6 5 5 16 25 31 35 37 39 37 35 34 34 34 31 29 27 22 21 21 21 21 19 20 19 19
2 1 2 2 2 5 1 1 6 4 3 4 3 2 1 4 1 6 9 7 2 11 18 28 31 31 32 33 32 32 35 34 33 32 30 25 21 21 22 21 21 21 19 18
1 3 2 4 3 5 5 2 1 4 1 3 3 3 4 3 4 6 7 9 7 3 12 19 24 25 29 29 31 32 35 34 35 35 31 27 22 22 21 21 20 20 19 18
4 3 2 3 3 2 3 3 3 3 4 2 4 3 6 6 8 8 8 8 7 6 4 6 12 19 25 27 27 30 34 32 30 33 33 29 24 22 23 22 22 22 21 16
2 4 2 3 2 4 2 4 4 4 3 4 7 7 8 8 4 8 9 7 7 6 6 5 6 7 12 17 20 18 15 20 27 29 27 20 23 16 15 16 22 26 27 26
4 4 4 1 3 6 5 2 4 3 2 11 12 11 10 6 1 0 4 7 7 6 7 9 8 9 7 8 7 13 17 14 1 8 17 13 19 17 16 13 14 14 14 16
3 3 3 3 3 6 4 5 5 3 5 9 11 14 14 3 4 4 6 8 8 7 6 8 7 11 11 11 11 12 11 11 2 9 12 10 8 8 11 11 9 11 11 13
5 4 3 3 2 5 2 3 6 5 2 9 10 10 11 17 12 11 9 10 9 9 9 7 10 11 11 5 3 5 7 4 5 10 12 17 11 6 7 5 7 8 8 10
2 5 3 7 5 4 5 7 7 5 5 4 8 13 16 16 16 14 9 10 9 9 8 9 6 5 6 8 5 4 8 11 10 8 11 12 9 9 5 5 4 5 7 7
3 5 2 1 2 4 1 2 2 3 5 9 12 15 14 15 15 15 10 10 9 10 10 9 9 10 11 8 5 8 11 10 9 9 7 8 10 6 7 6 5 6 7 8
4 8 5 3 5 2 4 4 6 5 10 15 12 11 13 15 16 14 10 11 11 10 11 10 9 9 12 10 8 8 8 8 9 8 5 6 6 5 7 3 6 8 9 10
9 7 5 6 13 7 15 9 11 11 10 9 12 17 13 13 16 17 15 11 11 12 11 9 10 10 10 8 8 7 6 6 5 3 5 4 1 2 1 2 3 2 3 4

GFSCGP_850_spd_135.txt.gz
Wind_Speed
1 4 5 5 2 6 7 10 10 5 2 6 5 2 10 20 11 16 22 22 22 23 19 18 21 19 20 19 19 21 19 17 17 18 18 16 15 11 10 9 10 8 7 8
4 3 3 4 5 3 6 7 6 4 3 3 6 7 9 11 16 13 20 25 25 20 18 20 22 21 20 21 20 21 20 17 16 16 19 18 16 13 11 10 10 9 7 7
6 2 7 4 7 6 5 4 8 5 7 6 0 4 5 12 15 13 12 25 27 26 24 21 25 24 22 23 23 23 22 19 16 15 17 19 16 14 14 12 11 9 8 6
2 3 5 5 7 7 7 6 9 10 4 3 2 3 4 9 15 18 18 20 28 28 25 21 23 26 26 24 23 23 24 21 18 17 19 18 16 15 14 12 12 12 10 8
1 4 5 5 6 10 1 10 9 6 5 4 2 2 1 7 12 18 26 19 28 29 26 27 26 27 26 25 24 24 24 25 22 19 19 16 16 14 13 13 11 9 9 9
4 1 3 1 5 9 14 13 8 4 2 2 2 1 5 7 18 19 25 26 28 29 27 26 22 23 26 27 26 25 25 25 25 21 19 17 18 17 16 15 13 11 10 11
2 1 1 5 11 10 6 11 2 2 2 1 4 4 10 8 11 16 27 35 27 27 26 24 25 29 30 29 28 27 26 25 26 25 22 20 17 18 18 16 16 13 12 13
2 4 9 8 3 6 13 7 4 4 4 3 4 5 3 5 9 17 23 40 24 25 26 26 29 32 33 31 29 28 29 26 26 27 25 24 19 19 17 15 17 16 12 12
1 1 2 6 5 10 7 8 2 3 2 2 4 4 3 3 14 10 14 29 30 26 29 30 27 30 33 33 31 29 28 28 27 27 24 25 23 22 20 18 17 16 15 14
1 3 3 3 6 6 7 10 4 3 4 4 2 4 5 9 11 7 13 24 33 30 29 29 28 32 37 35 32 30 28 26 27 25 25 23 22 22 20 21 20 17 17 19
1 3 0 4 2 6 6 5 3 3 2 2 2 4 2 8 12 6 10 24 28 32 31 33 31 34 39 36 33 30 28 27 27 27 25 23 21 21 20 21 19 17 16 17
2 1 4 2 2 2 2 2 6 7 6 1 2 2 4 5 6 2 10 21 25 27 33 38 35 33 35 39 36 32 28 25 24 25 24 23 21 21 21 22 20 19 17 17
2 0 3 3 4 4 1 2 2 1 1 6 5 3 3 6 5 7 5 2 10 22 30 33 31 30 36 40 40 35 30 26 23 22 22 22 22 22 20 20 20 19 18 17
3 1 3 6 4 4 3 1 2 3 3 4 6 6 3 2 5 8 8 8 4 11 23 30 33 39 36 38 41 37 33 29 27 25 23 21 21 22 22 20 20 19 17 17
1 4 3 6 8 6 5 3 2 4 2 4 1 5 2 2 5 10 10 12 5 6 17 26 27 36 40 37 39 39 35 31 29 28 27 25 21 21 22 22 22 20 19 18
2 1 1 5 4 5 5 4 5 2 3 4 4 6 0 2 3 6 9 12 6 2 10 19 27 31 33 37 35 36 34 32 31 29 28 27 25 22 22 24 23 22 20 20
0 1 2 4 2 3 7 7 6 3 3 3 5 0 3 2 3 5 7 8 7 1 5 13 21 24 28 27 28 30 34 30 31 30 31 30 29 26 24 24 24 22 21 20
2 2 1 4 2 7 2 1 3 7 3 7 5 6 5 4 6 6 6 4 5 6 5 6 10 16 22 23 23 26 28 30 29 28 29 27 29 29 26 24 24 21 19 19
0 2 2 3 4 4 3 6 6 6 3 7 5 7 10 7 3 3 5 5 3 6 6 6 8 8 8 12 15 18 18 21 21 19 20 22 27 31 26 26 20 19 20 21
4 1 4 2 4 5 1 2 2 4 6 16 12 11 12 8 3 2 2 4 4 4 8 10 9 8 7 7 8 10 10 11 13 13 10 16 21 24 26 22 25 19 20 21
2 1 6 6 6 5 2 2 1 6 2 5 12 10 12 4 1 6 5 6 5 6 6 8 9 11 13 13 13 9 8 8 3 3 5 10 16 11 19 21 20 19 15 12
3 3 2 1 4 8 3 4 5 4 5 3 6 7 9 12 9 9 9 9 9 9 7 8 9 8 8 7 6 7 7 7 2 5 5 4 8 8 4 1 5 11 12 8
3 3 0 5 2 1 5 10 6 2 4 4 7 9 15 14 14 11 12 12 12 12 10 9 8 9 9 8 10 10 8 12 10 7 6 4 6 6 7 5 2 1 1 1
6 5 3 2 2 9 7 7 10 5 7 10 11 14 12 13 13 13 13 14 14 13 13 12 12 12 12 9 7 6 7 10 5 4 2 6 4 4 11 7 6 5 3 5
1 10 5 5 9 6 8 8 4 7 13 17 16 15 16 16 14 13 12 14 17 16 14 13 12 13 14 11 11 11 8 5 3 6 6 5 6 5 7 7 4 4 6 6
10 6 5 4 8 3 9 10 11 11 13 13 18 17 15 16 17 16 14 13 14 14 13 12 13 12 12 11 11 12 11 10 9 10 10 9 7 6 6 6 6 5 5 5

GFSCGP_850_spd_138.txt.gz
Wind_Speed
11 9 11 12 5 4 2 7 10 10 9 5 6 8 6 11 14 18 21 22 21 18 17 16 15 16 15 15 15 15 14 16 16 14 13 11 11 9 7 7 10 8 9 9
9 12 6 3 6 3 4 3 10 8 4 3 8 6 9 15 12 20 21 22 20 20 19 18 17 17 17 17 16 17 16 17 16 14 13 12 12 9 8 9 9 7 7 8
10 6 7 9 9 9 7 4 6 4 7 4 3 8 8 6 14 20 21 22 22 20 20 20 20 19 18 18 18 17 18 16 16 15 15 13 14 10 9 9 8 8 9 6
5 6 9 8 9 9 11 5 4 7 9 5 3 2 1 12 15 22 26 21 22 23 22 21 21 20 19 18 18 18 19 18 17 17 15 15 13 11 10 10 10 8 11 8
7 10 8 9 11 7 5 4 6 5 3 6 1 5 7 7 10 17 25 25 22 25 26 23 22 22 20 18 18 19 19 21 16 17 16 16 14 10 10 11 11 10 11 11
1 2 5 3 2 9 4 6 5 6 5 8 1 7 2 7 14 18 23 31 25 24 25 23 22 21 21 19 19 19 19 21 21 19 17 18 14 12 12 12 11 9 8 8
7 11 6 7 7 9 13 13 7 7 7 4 3 6 5 1 7 17 27 33 34 26 25 25 22 22 22 22 21 20 20 21 21 20 17 18 16 15 15 15 12 10 9 9
3 10 12 10 11 8 14 14 7 7 4 3 4 4 4 4 6 16 14 27 31 32 29 26 24 24 24 23 22 21 21 21 20 20 19 18 16 16 14 14 12 12 10 9
3 4 5 5 5 11 11 9 11 8 6 5 3 6 9 2 8 9 11 21 27 34 31 28 26 25 24 24 23 23 21 21 21 20 21 19 18 15 14 14 14 14 13 10
4 5 6 8 7 10 12 6 9 9 5 5 5 3 6 6 4 8 9 14 27 36 31 30 27 24 24 25 23 21 21 21 21 20 20 19 19 20 18 17 16 13 14 13
7 6 9 5 9 6 8 11 12 6 8 1 4 4 6 1 2 3 7 11 16 31 30 27 27 25 24 25 24 22 21 21 21 21 20 20 18 17 19 17 18 17 17 17
4 6 8 6 6 5 12 11 15 9 10 5 5 0 4 4 1 8 11 6 9 16 28 26 26 26 24 25 25 24 22 22 21 20 21 20 19 18 17 19 17 17 17 15
4 4 8 13 10 8 8 7 11 11 15 10 6 1 4 7 7 4 7 6 5 14 22 27 26 26 25 25 26 24 23 22 20 20 21 21 20 19 19 18 18 18 17 17
4 8 8 12 7 8 4 8 7 13 11 11 9 13 5 4 8 7 5 6 10 17 26 27 31 32 27 25 26 26 24 22 21 20 21 21 21 21 18 17 17 18 19 19
5 10 6 12 10 9 10 10 7 12 10 9 4 8 5 3 1 3 3 4 3 9 13 19 29 31 27 25 23 26 24 23 22 21 21 21 19 18 18 18 18 18 18 18
3 7 7 12 11 11 13 12 10 9 7 11 6 9 2 3 4 1 5 8 7 1 6 11 20 23 25 22 23 20 21 21 21 20 20 19 20 20 18 19 18 18 19 17
6 8 6 10 3 8 11 15 13 12 6 9 10 6 4 4 3 3 5 7 7 6 1 7 12 15 17 20 17 18 17 19 26 24 21 21 20 22 21 20 20 18 19 18
8 7 6 9 5 11 2 5 6 9 9 8 11 5 3 3 5 4 4 5 5 2 4 4 5 11 13 11 15 14 15 19 17 16 20 17 20 20 19 23 21 19 22 21
4 7 7 7 10 8 7 5 7 9 12 7 7 3 3 4 5 3 4 4 2 4 5 5 8 8 14 16 14 13 16 20 24 28 20 25 22 19 21 22 22 21 19 18
3 5 7 8 7 8 5 7 1 4 11 11 6 4 6 4 7 6 3 3 3 5 8 10 11 15 16 13 15 17 15 13 16 16 14 13 13 14 16 21 27 28 24 21
5 5 8 8 7 8 4 2 2 7 2 4 7 6 8 5 6 5 3 5 6 6 10 12 13 16 17 18 15 12 13 15 17 14 11 9 8 9 9 14 22 22 24 22
5 4 5 2 5 9 4 3 8 5 3 6 8 7 6 6 6 5 5 6 7 9 9 9 12 13 14 16 14 14 13 13 12 10 9 7 2 4 6 3 9 16 22 23
6 5 5 3 6 1 2 8 4 7 6 1 8 7 9 10 8 6 6 7 9 9 11 11 11 12 11 10 11 13 13 10 12 10 7 6 7 7 5 4 6 10 7 5
7 5 5 3 5 6 8 11 12 13 9 5 7 12 12 10 9 8 6 7 8 11 13 12 11 11 13 12 11 11 14 12 8 5 5 7 7 5 4 6 6 6 7 5
5 9 8 9 13 8 11 9 6 10 9 8 12 13 14 12 13 11 9 8 8 10 13 14 15 16 16 15 12 14 13 10 7 8 8 6 5 5 6 9 7 5 5 4
10 10 8 8 6 4 2 6 4 6 10 10 11 14 14 15 13 13 11 10 10 11 12 13 14 16 17 16 16 16 15 12 11 12 12 11 10 10 9 7 6 4 3 3

GFSCGP_850_spd_141.txt.gz
Wind_Speed
16 12 13 16 7 4 9 8 11 11 11 13 7 5 12 10 16 15 9 18 22 22 19 17 17 17 16 16 16 16 15 16 15 12 11 11 11 10 8 8 8 8 6 7
10 13 15 5 2 7 12 4 11 9 13 11 10 7 12 11 12 15 22 14 19 22 19 20 19 17 17 18 16 16 14 17 16 13 13 11 13 9 9 8 8 7 7 7
13 10 9 3 7 11 11 3 6 12 7 4 9 10 15 14 17 26 29 21 18 16 26 22 20 19 18 18 17 18 15 14 16 15 13 13 14 9 8 9 7 7 7 6
10 10 1 12 13 11 14 3 2 1 12 5 18 1 16 18 18 22 32 23 24 36 25 27 21 19 20 18 18 17 17 16 16 18 16 13 11 11 10 9 9 8 8 7
5 4 10 12 11 7 1 4 7 2 12 11 7 10 13 18 14 18 33 33 30 28 24 27 22 23 18 20 19 18 19 17 15 17 13 14 15 10 9 10 12 9 9 7
5 4 9 10 5 7 10 5 7 8 11 12 3 5 9 14 18 20 23 30 28 24 25 26 20 24 20 19 20 19 20 18 17 15 15 15 14 12 11 11 7 9 8 7
8 11 11 7 11 10 13 16 10 10 9 4 4 7 3 11 17 23 28 34 29 28 29 23 26 25 23 21 19 21 20 20 20 17 16 15 11 8 9 11 11 9 9 8
8 12 13 11 17 7 12 19 10 1 6 6 7 2 3 3 10 25 23 30 32 28 26 22 27 26 25 24 20 20 21 20 20 20 16 15 15 13 11 12 11 10 9 8
3 6 8 7 10 11 5 14 19 6 12 4 9 4 8 5 10 27 25 27 26 33 30 22 27 19 24 23 21 21 20 20 20 19 19 18 17 17 14 13 13 10 11 6
3 9 9 12 10 13 13 14 9 7 5 7 3 5 10 6 6 11 12 12 19 26 32 31 29 27 23 22 21 20 20 21 20 20 20 18 17 16 19 13 14 16 11 17
13 10 2 5 11 14 5 13 19 1 6 2 5 7 9 7 5 10 5 7 13 23 38 36 23 27 25 25 24 21 21 20 20 20 19 19 18 17 17 14 16 16 14 12
8 9 8 13 7 12 11 14 27 12 18 4 8 7 9 4 6 10 8 6 4 7 37 29 30 28 26 23 25 22 22 21 20 20 20 19 18 17 16 16 16 15 16 15
11 8 11 14 16 17 10 17 10 2 4 6 1 2 6 8 5 13 15 9 6 1 7 12 25 29 28 26 22 23 23 22 20 19 20 21 20 18 18 17 17 16 17 16
6 13 14 11 3 11 14 16 26 11 7 16 13 10 15 11 7 6 10 11 9 2 5 6 11 21 26 28 26 25 24 22 21 20 20 21 20 19 17 17 17 16 17 18
7 11 12 15 14 14 14 11 20 22 14 13 11 15 3 13 11 7 7 5 5 15 16 10 14 20 17 18 23 26 24 24 22 21 20 20 20 18 18 17 16 15 16 16
4 8 8 12 16 16 19 18 17 11 20 11 21 14 6 15 9 8 5 5 7 9 10 16 16 26 24 27 24 23 26 24 23 22 19 18 17 17 17 17 17 18 17 17
4 8 10 13 14 9 12 16 19 17 16 7 17 4 17 7 9 7 5 4 3 3 5 17 17 19 25 28 26 22 23 23 23 21 19 18 17 17 18 16 17 19 18 17
8 9 8 11 11 13 11 9 10 20 12 6 14 17 10 8 8 5 4 5 3 7 6 5 7 14 17 19 15 21 19 22 23 20 19 20 16 15 15 16 20 20 20 20
4 8 9 10 11 12 9 7 11 14 15 16 20 22 10 3 4 7 3 3 3 4 7 9 6 13 14 19 21 20 20 19 19 18 19 15 13 16 18 22 21 22 23 23
4 5 8 11 7 12 9 4 10 8 12 16 7 12 8 4 7 7 4 4 3 4 8 8 9 11 17 21 19 18 14 17 16 10 10 12 17 18 19 17 17 20 17 19
9 8 11 10 10 6 9 4 6 6 3 13 17 6 9 2 7 6 4 4 4 5 7 10 12 15 15 15 18 18 13 12 12 18 17 7 8 8 9 7 9 12 17 23
7 8 9 8 7 8 6 3 7 7 11 8 13 7 14 10 8 7 5 4 5 6 10 11 15 17 15 11 12 17 19 23 21 17 15 12 10 9 8 5 7 10 13 18
7 8 8 7 6 5 5 9 11 8 9 10 10 10 13 17 10 6 6 6 5 7 12 10 12 13 13 15 19 20 18 17 18 18 17 15 12 10 9 8 11 8 13 12
12 13 6 10 11 11 6 10 12 14 12 11 4 5 3 8 11 9 7 6 4 8 12 15 14 14 14 14 16 19 19 17 16 13 12 12 11 9 9 9 7 7 7 8
6 5 6 9 16 17 13 10 10 9 12 10 5 8 8 9 5 8 11 8 7 9 11 12 14 15 16 15 18 20 17 13 12 11 11 11 10 8 7 5 7 7 5 4
13 10 10 10 8 3 7 4 5 8 8 12 8 7 8 12 13 11 16 6 5 10 10 13 16 17 16 15 16 15 13 10 11 12 12 10 8 8 9 6 4 3 3 3

GFSCGP_850_spd_147.txt.gz
Wind_Speed
14 3 7 14 11 3 11 10 6 6 5 3 9 5 13 21 9 11 9 1 12 17 23 15 15 18 18 21 19 18 19 14 12 9 13 16 12 6 8 17 14 12 7 9
3 8 14 14 7 12 14 12 5 4 6 6 6 7 10 11 8 11 14 7 10 6 18 16 23 22 23 22 22 19 16 14 11 12 10 15 11 7 6 9 10 11 9 7
8 10 16 14 2 10 15 10 7 7 4 9 8 3 7 7 20 31 25 19 14 13 19 14 21 25 24 24 22 21 19 15 16 16 13 13 9 9 8 5 11 8 9 5
7 6 2 7 7 7 6 20 18 14 10 5 18 3 10 12 11 15 17 24 25 20 23 17 15 20 25 23 22 19 20 19 21 17 16 12 15 10 7 7 7 7 9 3
7 1 5 4 8 8 5 8 4 8 10 5 18 4 4 10 12 17 26 24 29 26 30 25 23 24 25 25 25 22 20 18 25 23 19 18 15 12 9 11 10 7 12 6
8 8 2 6 9 7 7 6 3 2 1 2 5 6 4 9 19 13 22 25 27 27 26 29 18 24 22 28 25 22 21 18 24 27 21 19 19 13 9 12 16 11 6 13
9 11 4 5 6 5 4 5 4 5 5 2 8 8 7 18 11 15 18 27 25 26 30 35 26 27 23 30 27 26 22 18 21 30 22 21 21 18 15 14 14 9 10 8
5 2 8 6 5 5 5 7 5 4 2 2 6 4 3 10 19 17 23 29 28 27 29 34 33 22 30 28 28 27 23 18 19 21 26 20 21 19 14 14 10 10 7 11
5 8 7 10 5 7 7 3 1 5 2 1 2 7 2 19 20 9 16 23 30 29 33 35 32 26 31 27 32 30 25 24 17 21 21 23 23 21 18 16 13 11 9 9
6 5 8 2 5 5 4 1 6 4 3 1 8 4 4 9 14 17 16 18 28 30 32 35 29 31 32 38 30 31 30 26 20 20 23 26 23 23 24 19 19 13 9 9
4 2 9 6 4 7 2 2 3 6 3 4 3 5 7 7 8 13 22 17 27 29 30 33 33 40 37 46 32 35 32 31 26 20 24 23 25 27 23 24 19 16 16 13
7 3 5 8 7 8 7 0 1 4 5 3 3 5 9 9 14 3 18 21 21 24 36 27 39 41 43 42 29 38 35 33 27 21 21 23 21 22 26 27 23 23 21 17
5 4 4 9 7 7 3 6 5 7 4 6 5 4 4 6 11 3 25 22 5 9 10 25 28 39 38 38 29 39 42 31 27 22 23 23 20 20 22 25 24 22 19 21
3 2 4 4 7 5 5 8 8 2 2 5 5 3 3 5 6 8 10 16 19 5 8 9 20 30 37 45 43 37 38 31 27 22 25 26 24 21 21 20 19 16 17 16
3 2 5 7 9 10 9 10 11 8 6 6 4 7 2 5 5 3 8 24 43 7 7 7 14 27 32 38 36 41 39 33 29 22 28 28 26 23 22 22 20 18 18 18
4 3 4 5 8 9 10 9 9 10 8 6 7 6 2 9 20 22 9 48 41 7 4 8 7 16 25 30 38 40 39 32 32 29 26 27 26 25 24 22 24 21 18 17
3 3 3 4 9 11 7 9 8 6 10 7 3 6 11 6 7 19 32 20 10 11 12 6 4 17 17 20 30 37 31 25 30 33 29 25 27 26 23 21 21 20 18 17
1 1 2 2 6 6 6 9 15 11 13 10 8 6 6 10 17 14 5 2 9 7 18 15 9 8 18 15 12 26 30 24 35 37 31 28 26 25 22 20 18 15 14 16
3 4 1 2 3 8 8 6 4 6 7 15 12 7 2 5 2 3 7 10 5 8 15 18 6 8 8 23 19 14 30 36 34 37 36 33 29 25 20 17 16 18 18 18
4 6 5 1 2 4 3 7 9 7 3 13 17 11 14 9 2 4 6 8 8 7 9 12 9 8 10 12 21 21 27 33 31 33 37 33 27 22 21 22 19 17 15 17
2 2 4 5 5 3 4 8 5 1 3 8 10 11 10 4 6 3 4 8 10 11 6 10 6 6 9 14 19 26 12 4 12 13 33 25 22 20 20 16 14 14 10 9
4 5 4 3 5 2 5 6 4 6 3 9 8 10 13 9 7 8 7 8 9 11 7 8 8 4 8 10 15 18 18 8 9 7 5 9 14 13 11 8 7 8 9 8
2 4 4 5 4 5 3 7 4 7 1 7 4 11 11 11 12 8 7 8 9 8 6 4 8 7 7 9 7 12 14 14 5 9 12 4 2 7 3 0 4 6 5 6
4 5 2 6 2 2 6 6 9 13 8 14 2 10 6 8 11 7 6 9 8 11 9 8 6 10 9 10 15 16 18 16 18 12 15 7 1 8 8 8 11 9 11 13
4 11 3 5 7 8 4 6 7 12 13 12 8 8 12 11 7 5 7 2 4 7 11 9 7 11 17 14 14 12 12 12 10 17 20 17 13 12 13 13 12 11 10 8
10 8 3 2 5 3 2 10 9 16 16 11 5 10 11 5 10 2 4 1 1 5 7 8 7 12 15 15 15 12 12 12 14 17 16 16 15 14 13 10 11 10 7 6

GFSCGP_850_spd_150.txt.gz
Wind_Speed
2 4 6 11 6 6 7 6 6 2 5 1 3 5 10 8 12 11 7 8 12 17 26 23 27 32 27 22 24 22 20 16 26 21 17 18 15 10 12 7 9 8 5 12
5 6 13 7 4 10 10 9 4 2 3 2 3 9 8 6 7 13 10 11 14 15 18 10 22 33 30 29 26 24 22 18 21 22 21 15 15 11 14 11 10 9 6 9
6 11 9 6 5 7 3 8 5 6 5 1 4 7 7 4 14 13 18 16 18 17 22 19 37 35 31 25 25 25 22 19 18 19 21 20 16 16 19 15 14 9 9 6
7 15 12 6 5 13 7 11 16 15 5 3 11 4 5 5 6 10 11 20 23 22 24 27 35 36 32 25 23 24 24 20 19 24 24 20 18 17 15 12 13 11 12 6
7 6 4 4 3 7 9 14 19 15 5 4 9 3 6 5 7 12 19 21 24 24 23 30 31 34 31 28 23 23 23 23 23 26 24 22 18 15 15 14 12 11 12 8
6 2 2 5 2 2 2 7 6 5 3 2 5 8 6 2 12 0 17 26 20 26 24 26 32 34 28 29 29 26 23 24 24 26 24 24 19 19 16 19 16 12 8 10
7 6 3 1 5 8 8 7 4 4 4 5 5 2 5 8 12 11 12 23 28 30 30 32 30 30 29 31 31 29 27 26 26 30 27 24 22 22 18 18 19 18 11 11
1 7 8 4 6 7 2 7 6 5 3 4 5 3 4 4 20 24 4 24 31 30 33 33 32 31 29 33 30 30 29 27 27 32 30 25 25 25 21 15 16 17 14 12
4 8 6 4 4 8 2 0 5 7 2 3 5 5 3 6 6 14 22 4 23 29 32 33 35 29 31 28 28 30 29 28 26 26 32 29 26 27 21 17 18 17 13 15
1 3 1 6 2 3 6 3 3 4 3 2 3 4 4 3 6 4 7 6 5 16 30 29 36 33 28 31 30 29 29 29 28 25 26 31 28 26 23 24 21 20 16 13
2 4 8 5 5 4 4 2 7 6 3 4 1 5 3 5 4 8 9 9 12 16 21 29 32 35 35 31 31 32 31 29 31 27 25 28 30 28 28 24 22 19 18 16
3 5 2 6 7 5 4 4 5 5 3 1 3 5 6 6 9 9 9 12 16 13 15 27 32 33 35 34 37 36 36 33 33 31 27 28 29 29 29 31 26 19 20 18
0 2 3 9 8 8 5 6 5 6 3 5 5 4 5 7 6 9 12 7 8 10 6 14 28 31 38 37 37 44 39 37 33 33 31 29 30 30 31 33 29 25 22 20
7 2 6 5 6 4 6 8 3 5 3 4 6 4 7 7 5 4 1 3 3 8 8 12 11 31 34 39 39 44 43 40 35 31 33 30 31 29 29 29 31 30 26 21
5 4 4 6 5 4 2 7 10 3 5 6 8 8 5 7 6 10 12 8 8 5 5 8 11 17 32 40 46 45 44 41 35 33 34 31 30 25 24 23 24 25 24 24
3 2 1 5 7 8 4 8 6 9 6 5 9 2 4 6 13 17 22 19 9 7 5 3 5 12 18 35 38 45 44 41 36 34 32 28 27 26 24 23 25 24 23 22
4 4 3 2 4 6 5 6 3 4 2 4 3 3 4 2 10 13 9 12 16 6 2 5 5 12 12 17 32 44 44 39 36 33 30 28 26 25 26 24 24 25 24 22
6 5 3 3 4 1 7 5 12 13 7 9 9 8 12 15 20 13 13 12 14 11 12 11 10 9 12 13 11 30 38 38 39 39 34 32 29 25 27 27 27 26 26 24
4 5 3 4 3 4 5 4 3 5 5 2 5 6 5 7 11 18 16 14 17 14 15 14 11 10 9 13 16 16 28 34 22 24 33 29 31 32 31 30 27 25 24 25
6 6 5 2 4 4 6 4 4 11 1 4 4 4 6 9 2 6 14 14 14 13 14 11 9 7 9 10 15 19 17 21 29 32 29 35 31 35 34 33 28 27 26 25
3 4 6 3 3 5 5 6 2 4 6 17 15 14 13 6 14 6 6 9 9 12 12 9 8 7 7 8 10 18 20 24 30 29 24 23 27 32 37 33 31 27 24 23
6 6 3 3 2 4 6 2 5 5 9 16 18 19 23 20 14 13 6 8 10 10 10 6 7 6 6 4 8 16 17 16 16 17 33 35 37 29 39 34 26 21 22 20
1 6 5 6 6 7 5 4 2 9 5 10 10 9 16 15 13 10 7 8 10 11 6 5 4 5 6 4 5 8 20 20 14 12 13 10 14 10 10 8 11 9 11 13
1 3 4 4 4 5 12 17 14 11 9 6 3 8 12 10 11 9 8 7 7 5 1 3 4 6 7 7 6 15 21 21 16 14 11 9 9 10 7 3 5 14 15 14
4 3 4 1 5 4 10 18 13 12 9 6 2 8 10 10 12 10 8 7 6 4 4 3 3 4 6 7 10 12 14 16 20 21 16 12 13 9 7 11 12 12 12 11
6 6 4 4 4 6 7 16 11 8 4 2 3 5 6 8 11 11 7 1 1 3 6 6 6 4 10 13 9 8 9 12 17 17 16 10 9 14 16 12 12 13 11 10